Location: Brad
(46.1333°N, 22.7833°E)
Time: 11:29:07
(UTC+00:00)

Meteor PRIRODA - Pass Details

Date: 03 February 2023
Orbit: 475 x 489 km, 97.6° (Epoch: 21 March)

Event Time Altitude Azimuth Distance (km) Brightness Sun altitude
Rises 16:03:35 0° 163° (SSE) 2,513 7.2 -5.3°
Reaches altitude 10° 16:05:38 10° 162° (SSE) 1,640 6.3 -5.6°
Maximum altitude 16:09:09 80° 76° (ENE) 489 3.5 -6.2°
Drops below altitude 10° 16:12:42 10° 349° (N) 1,656 6.2 -6.8°
Sets 16:14:46 0° 349° (NNW) 2,541 7.2 -7.1°
